Location: Ajisawe
(8.4333°N, 4.3833°E)
Time: 00:48:23
(UTC+00:00)

Courier 1B Rocket - Pass Details

Date: 27 April 2021
Orbit: 920 x 1202 km, 28.3° (Epoch: 13 May)

Event Time Altitude Azimuth Distance (km) Brightness Sun altitude
Rises 00:07:18 0° 291° (WNW) 3,875 - -66.7°
Reaches altitude 10° 00:10:02 10° 287° (WNW) 2,959 - -66.5°
Maximum altitude 00:17:12 56° 210° (SSW) 1,346 - -65.9°
Drops below altitude 10° 00:24:46 10° 134° (SE) 3,112 - -65.1°
Sets 00:27:44 0° 129° (SE) 4,088 - -64.8°
